TimeCDT,TemperatureF,Dew PointF,Humidity,Sea Level PressureIn,VisibilityMPH,Wind Direction,Wind SpeedMPH,Gust SpeedMPH,PrecipitationIn,Events,Conditions,WindDirDegrees,DateUTC
12:15 AM,79.5,72.1,78,30.20,10.0,Calm,Calm,-,N/A,,Clear,0,2013-07-18 05:15:00
12:35 AM,78.8,72.5,81,30.20,10.0,Calm,Calm,-,N/A,,Clear,0,2013-07-18 05:35:00
12:55 AM,76.5,71.8,85,30.20,10.0,Calm,Calm,-,N/A,,Clear,0,2013-07-18 05:55:00
1:15 AM,75.6,72.3,90,30.19,10.0,Calm,Calm,-,N/A,,Clear,0,2013-07-18 06:15:00
1:35 AM,75.7,72.5,90,30.19,10.0,SSW,3.5,-,N/A,,Clear,200,2013-07-18 06:35:00
1:55 AM,80.1,72.1,77,30.19,10.0,SW,4.6,-,N/A,,Clear,220,2013-07-18 06:55:00
2:15 AM,79.3,72.0,78,30.19,10.0,Calm,Calm,-,N/A,,Clear,0,2013-07-18 07:15:00
2:35 AM,76.1,71.6,86,30.18,10.0,Calm,Calm,-,N/A,,Clear,0,2013-07-18 07:35:00
2:55 AM,74.8,71.6,90,30.18,10.0,Calm,Calm,-,N/A,,Clear,0,2013-07-18 07:55:00
3:15 AM,76.8,73.0,88,30.18,10.0,SSW,3.5,-,N/A,,Clear,210,2013-07-18 08:15:00
3:35 AM,78.8,72.5,81,30.18,10.0,SSW,3.5,-,N/A,,Clear,210,2013-07-18 08:35:00
3:55 AM,75.9,71.4,86,30.18,10.0,Calm,Calm,-,N/A,,Clear,0,2013-07-18 08:55:00
4:15 AM,74.5,71.2,90,30.17,10.0,Calm,Calm,-,N/A,,Clear,0,2013-07-18 09:15:00
4:35 AM,73.9,71.4,92,30.17,10.0,SSW,3.5,-,N/A,,Clear,200,2013-07-18 09:35:00
4:45 AM,77.0,71.6,83,30.17,10.0,Calm,Calm,-,N/A,,Clear,0,2013-07-18 09:45:00
5:45 AM,77.0,71.6,83,30.17,10.0,Calm,Calm,-,N/A,,Clear,0,2013-07-18 10:45:00
6:45 AM,80.6,73.4,79,30.16,10.0,Calm,Calm,-,N/A,,Clear,0,2013-07-18 11:45:00
8:45 AM,86.0,73.4,66,30.16,10.0,Calm,Calm,-,N/A,,Clear,0,2013-07-18 13:45:00
9:45 AM,89.6,71.6,55,30.15,10.0,Calm,Calm,-,N/A,,Partly Cloudy,0,2013-07-18 14:45:00
10:45 AM,89.6,69.8,52,30.15,10.0,Calm,Calm,-,N/A,,Scattered Clouds,0,2013-07-18 15:45:00
11:45 AM,91.4,69.8,49,30.14,10.0,SSW,8.1,-,N/A,,Scattered Clouds,210,2013-07-18 16:45:00
12:45 PM,91.4,68.0,46,30.12,10.0,SW,11.5,-,N/A,,Scattered Clouds,220,2013-07-18 17:45:00
1:45 PM,93.2,68.0,44,30.09,10.0,SW,12.7,-,N/A,,Scattered Clouds,230,2013-07-18 18:45:00
2:45 PM,93.2,68.0,44,30.07,10.0,SSW,11.5,-,N/A,,Mostly Cloudy,200,2013-07-18 19:45:00
3:45 PM,95.0,68.0,41,30.05,10.0,WSW,13.8,-,N/A,,Scattered Clouds,240,2013-07-18 20:45:00
4:45 PM,95.0,68.0,41,30.03,10.0,SW,11.5,-,N/A,,Mostly Cloudy,230,2013-07-18 21:45:00
5:45 PM,91.4,69.8,49,30.00,10.0,SW,11.5,17.3,N/A,,Mostly Cloudy,230,2013-07-18 22:45:00
6:45 PM,89.6,68.0,49,30.01,10.0,West,9.2,-,N/A,,Mostly Cloudy,260,2013-07-18 23:45:00
7:45 PM,89.6,69.8,52,29.99,10.0,SW,5.8,-,N/A,,Mostly Cloudy,220,2013-07-19 00:45:00
8:45 PM,87.8,71.6,58,30.00,10.0,SSW,4.6,-,N/A,,Mostly Cloudy,210,2013-07-19 01:45:00
9:15 PM,86.4,72.5,63,30.00,10.0,SW,3.5,-,N/A,,Clear,220,2013-07-19 02:15:00
9:35 PM,86.2,72.7,64,30.00,10.0,SSW,3.5,-,N/A,,Clear,210,2013-07-19 02:35:00
9:45 PM,86.0,73.4,66,30.00,10.0,SSW,6.9,-,N/A,,Mostly Cloudy,200,2013-07-19 02:45:00
9:55 PM,86.2,72.7,64,30.00,10.0,SW,3.5,-,N/A,,Clear,220,2013-07-19 02:55:00
10:15 PM,86.0,72.5,64,30.00,10.0,SSW,4.6,-,N/A,,Clear,210,2013-07-19 03:15:00
10:35 PM,85.8,72.5,64,29.99,10.0,SW,5.8,-,N/A,,Clear,220,2013-07-19 03:35:00
10:55 PM,85.3,72.7,66,29.99,10.0,SSW,4.6,-,N/A,,Clear,210,2013-07-19 03:55:00
11:15 PM,84.7,72.7,67,29.99,10.0,SSW,3.5,-,N/A,,Clear,210,2013-07-19 04:15:00
11:35 PM,84.2,72.7,68,29.99,10.0,SSW,3.5,-,N/A,,Clear,210,2013-07-19 04:35:00
11:55 PM,83.8,72.5,69,29.99,10.0,SSW,4.6,-,N/A,,Clear,200,2013-07-19 04:55:00